Weather History for Canon City Fremont County, CO

Change the Weather History Date:

Tuesday, April 29, 2014

  Actual Average (KPUB) Record (KPUB)
Temperature  
Mean Temperature 46 °F 55 °F  
Max Temperature 60 °F 72 °F 89 °F (1986)
Min Temperature 33 °F 38 °F 22 °F (1996)
Degree Days  
Heating Degree Days 18 10  
Month to date heating degree days 426  
Since 1 July heating degree days 5431  
Cooling Degree Days 0 0  
Month to date cooling degree days 0  
Year to date cooling degree days 0  
Moisture  
Dew Point 16 °F    
Average Humidity 30    
Maximum Humidity 61    
Minimum Humidity 17    
Precipitation  
Precipitation 0.00 in 0.05 in 0.81 in (1999)
Month to date precipitation 1.34  
Year to date precipitation 2.92  
Snow  
Snow 0.00 in 0.10 in 12.80 in (1990)
Month to date snowfall 3.7  
Since 1 July snowfall 31.2  
Snow Depth -    
Sea Level Pressure  
Sea Level Pressure 30.08 in    
Wind  
Wind Speed 11 mph (WNW)    
Max Wind Speed 23 mph    
Max Gust Speed 30 mph    
Visibility 10 miles    
Events      
T = Trace of Precipitation, MM = Missing Value Source: NWS Daily Summary

Daily Weather History Graph

Daily Weather History Graph

Search for Another Location

Airport:

Trip Planner

Search our weather history database for the weather conditions in past years. The results will help you decide how hot, cold, wet, or windy it might be!

Date:

Astronomy

Apr. 29, 2014 Rise Set
Actual Time 6:05 AM MDT 7:50 PM MDT
Civil Twilight 5:37 AM MDT 8:18 PM MDT
Nautical Twilight 5:03 AM MDT 8:53 PM MDT
Astronomical Twilight 4:26 AM MDT 9:29 PM MDT
Moon 6:25 AM MDT (4/29) 8:32 PM MDT (4/29)
Length of Visible Light 14h 41m
Length of Day
13h 44m
New Moon, 0% of the Moon is Illuminated
Apr 29
New Moon
May 6
First Quarter
May 14
Full
May 21
Last Quarter
May 28
New

Hourly Weather History & Observations

Time (MDT) Temp. Windchill Dew Point Humidity Pressure Visibility Wind Dir Wind Speed Gust Speed Precip Events Conditions
12:10 AM 39.2 °F 33.0 °F 12.2 °F 33% 30.01 in 10.0 mi West 9.2 mph - N/A   Clear
12:30 AM 39.2 °F 32.0 °F 10.4 °F 31% 30.01 in 10.0 mi West 11.5 mph - N/A   Clear
12:50 AM 37.4 °F 30.3 °F 12.2 °F 36% 30.02 in 10.0 mi West 10.4 mph - N/A   Clear
1:10 AM 37.4 °F 30.8 °F 10.4 °F 33% 30.02 in 10.0 mi WNW 9.2 mph - N/A   Clear
1:30 AM 37.4 °F 30.8 °F 12.2 °F 36% 30.02 in 10.0 mi West 9.2 mph - N/A   Clear
1:50 AM 37.4 °F 30.8 °F 12.2 °F 36% 30.02 in 10.0 mi West 9.2 mph - N/A   Clear
2:15 AM 35.6 °F 29.2 °F 12.2 °F 38% 30.02 in 10.0 mi West 8.1 mph - N/A   Clear
2:35 AM 33.8 °F 27.0 °F 12.2 °F 41% 30.02 in 10.0 mi West 8.1 mph - N/A   Clear
2:50 AM 33.8 °F 27.0 °F 12.2 °F 41% 30.02 in 10.0 mi West 8.1 mph - N/A   Clear
3:10 AM 35.6 °F 29.2 °F 12.2 °F 38% 30.03 in 10.0 mi West 8.1 mph - N/A   Clear
3:30 AM 35.6 °F 28.6 °F 12.2 °F 38% 30.03 in 10.0 mi West 9.2 mph - N/A   Clear
3:55 AM 35.6 °F 28.6 °F 12.2 °F 38% 30.04 in 10.0 mi West 9.2 mph - N/A   Clear
4:15 AM 35.6 °F 28.0 °F 12.2 °F 38% 30.04 in 10.0 mi West 10.4 mph - N/A   Clear
4:35 AM 33.8 °F 25.8 °F 12.2 °F 41% 30.04 in 10.0 mi West 10.4 mph - N/A   Clear
4:50 AM 33.8 °F 25.8 °F 14.0 °F 44% 30.04 in 10.0 mi West 10.4 mph - N/A   Clear
5:15 AM 35.6 °F 28.0 °F 14.0 °F 41% 30.05 in 10.0 mi West 10.4 mph - N/A   Clear
5:35 AM 35.6 °F 27.5 °F 14.0 °F 41% 30.05 in 10.0 mi WNW 11.5 mph - N/A   Clear
5:55 AM 35.6 °F 28.0 °F 14.0 °F 41% 30.06 in 10.0 mi WNW 10.4 mph - N/A   Mostly Cloudy
6:15 AM 33.8 °F 27.0 °F 14.0 °F 44% 30.06 in 10.0 mi WNW 8.1 mph - N/A   Mostly Cloudy
6:25 AM 35.6 °F 29.2 °F 14.0 °F 41% 30.06 in 10.0 mi West 8.1 mph - N/A   Scattered Clouds
9:55 AM 51.8 °F - 14.0 °F 22% 30.07 in 10.0 mi NW 17.3 mph 26.5 mph N/A   Clear
10:15 AM 53.6 °F - 14.0 °F 21% 30.07 in 10.0 mi West 15.0 mph 21.9 mph N/A   Clear
10:35 AM 53.6 °F - 14.0 °F 21% 30.07 in 10.0 mi West 13.8 mph 23.0 mph N/A   Scattered Clouds
10:55 AM 53.6 °F - 14.0 °F 21% 30.06 in 10.0 mi West 12.7 mph 20.7 mph N/A   Scattered Clouds
11:15 AM 55.4 °F - 14.0 °F 20% 30.07 in 10.0 mi West 10.4 mph 25.3 mph N/A   Mostly Cloudy
11:35 AM 55.4 °F - 14.0 °F 20% 30.07 in 10.0 mi WNW 19.6 mph 24.2 mph N/A   Overcast
11:50 AM 55.4 °F - 14.0 °F 20% 30.07 in 10.0 mi West 13.8 mph 20.7 mph N/A   Mostly Cloudy
12:15 PM 55.4 °F - 14.0 °F 20% 30.07 in 10.0 mi West 15.0 mph 24.2 mph N/A   Mostly Cloudy
12:35 PM 55.4 °F - 15.8 °F 21% 30.06 in 10.0 mi WNW 23.0 mph 27.6 mph N/A   Mostly Cloudy
12:55 PM 57.2 °F - 14.0 °F 18% 30.06 in 10.0 mi West 15.0 mph 21.9 mph N/A   Mostly Cloudy
1:15 PM 59.0 °F - 15.8 °F 19% 30.05 in 10.0 mi West 17.3 mph 25.3 mph N/A   Mostly Cloudy
1:35 PM 59.0 °F - 15.8 °F 19% 30.05 in 10.0 mi WNW 13.8 mph 25.3 mph N/A   Scattered Clouds
1:55 PM 57.2 °F - 12.2 °F 17% 30.05 in 10.0 mi West 11.5 mph 21.9 mph N/A   Mostly Cloudy
2:15 PM 59.0 °F - 14.0 °F 17% 30.05 in 10.0 mi NW 15.0 mph 25.3 mph N/A   Mostly Cloudy
2:35 PM 59.0 °F - 14.0 °F 17% 30.05 in 10.0 mi NW 12.7 mph 21.9 mph N/A   Mostly Cloudy
3:15 PM 59.0 °F - 15.8 °F 19% 30.04 in 10.0 mi NW 10.4 mph 23.0 mph N/A   Mostly Cloudy
3:35 PM 59.0 °F - 14.0 °F 17% 30.04 in 10.0 mi WNW 8.1 mph - N/A   Mostly Cloudy
3:55 PM 57.2 °F - 14.0 °F 18% 30.05 in 10.0 mi NNW 12.7 mph 17.3 mph N/A   Mostly Cloudy
4:15 PM 59.0 °F - 15.8 °F 19% 30.05 in 10.0 mi West 8.1 mph 17.3 mph N/A   Mostly Cloudy
4:35 PM 60.8 °F - 15.8 °F 17% 30.05 in 10.0 mi WNW 18.4 mph 29.9 mph N/A   Mostly Cloudy
4:55 PM 60.8 °F - 15.8 °F 17% 30.06 in 10.0 mi WNW 17.3 mph 23.0 mph N/A   Overcast
5:15 PM 60.8 °F - 17.6 °F 19% 30.06 in 10.0 mi NW 13.8 mph 25.3 mph N/A   Mostly Cloudy
5:35 PM 59.0 °F - 15.8 °F 19% 30.07 in 10.0 mi WNW 23.0 mph 27.6 mph N/A   Scattered Clouds
5:55 PM 59.0 °F - 17.6 °F 20% 30.07 in 10.0 mi WNW 17.3 mph 25.3 mph N/A   Scattered Clouds
6:15 PM 59.0 °F - 15.8 °F 19% 30.08 in 10.0 mi WNW 23.0 mph 27.6 mph N/A   Scattered Clouds
6:35 PM 55.4 °F - 17.6 °F 23% 30.09 in 10.0 mi NW 17.3 mph - N/A   Clear
6:55 PM 55.4 °F - 17.6 °F 23% 30.09 in 10.0 mi NW 12.7 mph 23.0 mph N/A   Clear
7:15 PM 53.6 °F - 17.6 °F 24% 30.10 in 10.0 mi NW 18.4 mph 23.0 mph N/A   Mostly Cloudy
7:35 PM 51.8 °F - 17.6 °F 26% 30.11 in 10.0 mi North 4.6 mph - N/A   Scattered Clouds
7:55 PM 51.8 °F - 17.6 °F 26% 30.11 in 10.0 mi NW 13.8 mph 19.6 mph N/A   Scattered Clouds
8:15 PM 51.8 °F - 14.0 °F 22% 30.13 in 10.0 mi NW 17.3 mph 25.3 mph N/A   Scattered Clouds
8:35 PM 50.0 °F - 14.0 °F 24% 30.14 in 10.0 mi West 9.2 mph - N/A   Scattered Clouds
8:55 PM 50.0 °F - 15.8 °F 26% 30.15 in 10.0 mi NW 15.0 mph 21.9 mph N/A   Scattered Clouds
9:15 PM 50.0 °F - 15.8 °F 26% 30.17 in 10.0 mi NW 10.4 mph - N/A   Scattered Clouds
9:35 PM 50.0 °F - 17.6 °F 28% 30.18 in 10.0 mi NNW 3.5 mph 10.4 mph N/A   Mostly Cloudy
9:55 PM 50.0 °F - 17.6 °F 28% 30.18 in 10.0 mi WNW 4.6 mph - N/A   Scattered Clouds
10:15 PM 44.6 °F 42.2 °F 26.6 °F 49% 30.19 in 10.0 mi East 4.6 mph - N/A   Scattered Clouds
10:35 PM 44.6 °F 43.1 °F 26.6 °F 49% 30.19 in 10.0 mi ESE 3.5 mph - N/A   Scattered Clouds
10:55 PM 44.6 °F 40.2 °F 28.4 °F 53% 30.21 in 10.0 mi SSE 8.1 mph 17.3 mph N/A   Clear
11:15 PM 42.8 °F 35.4 °F 28.4 °F 57% 30.22 in 10.0 mi SSE 15.0 mph 19.6 mph N/A   Scattered Clouds
11:35 PM 42.8 °F 35.8 °F 28.4 °F 57% 30.23 in 10.0 mi SE 13.8 mph - N/A   Clear
11:50 PM 42.8 °F 35.8 °F 30.2 °F 61% 30.23 in 10.0 mi SE 13.8 mph - N/A   Clear